• In France
  • List of Countries
  • For 7 days
  • Water Temperature
  • Satellite Maps
  • Weather Map
  • Weather Widgets
  • user-avatar
    Login

    Hourly Weather Neuquén

    Today, 13 November, Tuesday

    Time Temperature Precipitation Wind Pressure Humidity
    00:00 +20°C° 0 mm 8 mps 732 mmHg 42%
    01:00 +18°C° 0 mm 9 mps 731 mmHg 43%
    02:00 +18°C° 0 mm 10 mps 731 mmHg 44%
    03:00 +17°C° 0 mm 10 mps 731 mmHg 45%
    04:00 +17°C° 0 mm 10 mps 731 mmHg 46%
    05:00 +17°C° 0 mm 10 mps 732 mmHg 44%
    06:00 +18°C° 0 mm 11 mps 732 mmHg 42%
    07:00 +18°C° 0 mm 12 mps 732 mmHg 40%
    08:00 +21°C° 0 mm 11 mps 732 mmHg 36%
    09:00 +22°C° 0 mm 10 mps 732 mmHg 32%
    10:00 +24°C° 0 mm 9 mps 732 mmHg 28%
    11:00 +26°C° 0 mm 9 mps 732 mmHg 25%
    12:00 +26°C° 0 mm 9 mps 731 mmHg 23%
    13:00 +27°C° 0 mm 9 mps 731 mmHg 20%
    14:00 +27°C° 0 mm 9 mps 730 mmHg 20%
    15:00 +27°C° 0 mm 10 mps 730 mmHg 21%
    16:00 +27°C° 0 mm 11 mps 730 mmHg 21%
    17:00 +24°C° 0 mm 11 mps 730 mmHg 24%
    18:00 +23°C° 0 mm 12 mps 730 mmHg 28%
    19:00 +22°C° 0 mm 12 mps 730 mmHg 31%
    20:00 +21°C° 0 mm 12 mps 730 mmHg 34%
    21:00 +19°C° 0 mm 13 mps 730 mmHg 36%
    22:00 +18°C° 0 mm 13 mps 731 mmHg 39%
    23:00 +17°C° 0 mm 13 mps 730 mmHg 39%

    Tomorrow, 14 November, Wednesday

    Time Temperature Precipitation Wind Pressure Humidity
    00:00 +17°C° 0 mm 12 mps 730 mmHg 38%
    01:00 +15°C° 0 mm 12 mps 730 mmHg 38%
    02:00 +15°C° 0 mm 12 mps 730 mmHg 38%
    03:00 +14°C° 0 mm 11 mps 730 mmHg 38%
    04:00 +14°C° 0 mm 11 mps 730 mmHg 38%
    05:00 +16°C° 0 mm 11 mps 730 mmHg 36%
    06:00 +17°C° 0 mm 12 mps 731 mmHg 33%
    07:00 +18°C° 0 mm 13 mps 731 mmHg 31%
    08:00 +19°C° 0 mm 12 mps 731 mmHg 28%
    09:00 +21°C° 0 mm 12 mps 731 mmHg 26%
    10:00 +23°C° 0 mm 12 mps 730 mmHg 23%
    11:00 +24°C° 0 mm 12 mps 730 mmHg 23%
    12:00 +26°C° 0 mm 12 mps 729 mmHg 22%
    13:00 +27°C° 0 mm 11 mps 729 mmHg 21%
    14:00 +27°C° 0 mm 12 mps 728 mmHg 21%
    15:00 +27°C° 0 mm 12 mps 728 mmHg 21%
    16:00 +28°C° 0 mm 12 mps 727 mmHg 21%
    17:00 +26°C° 0 mm 12 mps 728 mmHg 24%
    18:00 +23°C° 0 mm 11 mps 728 mmHg 28%
    19:00 +22°C° 0 mm 11 mps 728 mmHg 32%
    20:00 +21°C° 0 mm 11 mps 728 mmHg 34%
    21:00 +19°C° 0 mm 11 mps 728 mmHg 36%
    22:00 +19°C° 0 mm 11 mps 729 mmHg 38%
    23:00 +18°C° 0 mm 10 mps 728 mmHg 40%

    Day after tomorrow, 15 November, Thursday

    Time Temperature Precipitation Wind Pressure Humidity
    00:00 +17°C° 0 mm 10 mps 728 mmHg 41%
    01:00 +17°C° 0 mm 9 mps 728 mmHg 43%
    02:00 +16°C° 0 mm 9 mps 728 mmHg 43%
    03:00 +15°C° 0 mm 9 mps 729 mmHg 43%
    04:00 +13°C° 0 mm 9 mps 729 mmHg 43%
    05:00 +13°C° 0 mm 10 mps 730 mmHg 37%
    06:00 +13°C° 0 mm 10 mps 731 mmHg 31%
    07:00 +13°C° 0 mm 10 mps 732 mmHg 25%
    08:00 +15°C° 0 mm 9 mps 733 mmHg 23%
    09:00 +16°C° 0 mm 8 mps 733 mmHg 20%
    10:00 +18°C° 0 mm 7 mps 734 mmHg 17%
    11:00 +18°C° 0 mm 7 mps 734 mmHg 16%
    12:00 +20°C° 0 mm 6 mps 734 mmHg 14%
    13:00 +21°C° 0 mm 6 mps 733 mmHg 12%
    14:00 +22°C° 0 mm 6 mps 733 mmHg 12%
    15:00 +22°C° 0 mm 6 mps 733 mmHg 11%
    16:00 +23°C° 0 mm 5 mps 732 mmHg 11%
    17:00 +22°C° 0 mm 4 mps 733 mmHg 12%
    18:00 +21°C° 0 mm 3 mps 733 mmHg 13%
    19:00 +20°C° 0 mm 2 mps 734 mmHg 15%
    20:00 +19°C° 0 mm 3 mps 734 mmHg 16%
    21:00 +19°C° 0 mm 3 mps 734 mmHg 16%
    22:00 +18°C° 0 mm 4 mps 734 mmHg 17%
    23:00 +17°C° 0 mm 5 mps 734 mmHg 18%

    16 November, Friday

    Time Temperature Precipitation Wind Pressure Humidity
    00:00 +16°C° 0 mm 5 mps 733 mmHg 20%
    01:00 +16°C° 0 mm 6 mps 733 mmHg 21%
    02:00 +15°C° 0 mm 6 mps 733 mmHg 22%
    03:00 +15°C° 0 mm 6 mps 732 mmHg 23%
    04:00 +14°C° 0 mm 6 mps 732 mmHg 24%
    05:00 +15°C° 0 mm 8 mps 732 mmHg 24%
    06:00 +17°C° 0 mm 10 mps 732 mmHg 24%
    07:00 +18°C° 0 mm 11 mps 732 mmHg 23%
    08:00 +19°C° 0 mm 11 mps 732 mmHg 23%
    09:00 +21°C° 0 mm 12 mps 731 mmHg 22%
    10:00 +23°C° 0 mm 12 mps 731 mmHg 21%
    11:00 +24°C° 0 mm 10 mps 730 mmHg 20%
    12:00 +26°C° 0 mm 9 mps 729 mmHg 20%
    13:00 +26°C° 0 mm 7 mps 728 mmHg 20%
    14:00 +26°C° 0.1 mm 7 mps 727 mmHg 24%
    15:00 +24°C° 0.1 mm 7 mps 727 mmHg 29%
    16:00 +23°C° 0.1 mm 8 mps 726 mmHg 33%
    17:00 +21°C° 0.4 mm 8 mps 727 mmHg 41%
    18:00 +20°C° 0.4 mm 7 mps 727 mmHg 48%
    19:00 +17°C° 0.4 mm 7 mps 727 mmHg 55%
    20:00 +16°C° 0.5 mm 8 mps 727 mmHg 55%
    21:00 +15°C° 0.5 mm 9 mps 728 mmHg 56%
    22:00 +14°C° 0.5 mm 10 mps 729 mmHg 56%
    23:00 +13°C° 0 mm 10 mps 729 mmHg 52%

    17 November, Saturday

    Time Temperature Precipitation Wind Pressure Humidity
    00:00 +13°C° 0 mm 11 mps 729 mmHg 48%
    01:00 +12°C° 0 mm 11 mps 729 mmHg 44%
    02:00 +10°C° 0 mm 12 mps 729 mmHg 44%
    03:00 +9°C° 0 mm 13 mps 730 mmHg 44%
    04:00 +8°C° 0 mm 13 mps 730 mmHg 44%
    05:00 +9°C° 0 mm 14 mps 731 mmHg 41%
    06:00 +10°C° 0 mm 14 mps 732 mmHg 38%
    07:00 +12°C° 0 mm 14 mps 733 mmHg 35%
    08:00 +14°C° 0 mm 13 mps 733 mmHg 33%
    09:00 +15°C° 0 mm 13 mps 733 mmHg 30%
    10:00 +18°C° 0 mm 12 mps 732 mmHg 28%
    11:00 +19°C° 0 mm 12 mps 732 mmHg 26%
    12:00 +21°C° 0 mm 12 mps 732 mmHg 25%
    13:00 +22°C° 0 mm 12 mps 731 mmHg 23%
    14:00 +22°C° 0 mm 12 mps 731 mmHg 24%
    15:00 +20°C° 0 mm 13 mps 731 mmHg 25%
    16:00 +20°C° 0 mm 13 mps 730 mmHg 26%
    17:00 +19°C° 0 mm 12 mps 731 mmHg 29%
    18:00 +18°C° 0 mm 12 mps 731 mmHg 32%
    19:00 +17°C° 0 mm 11 mps 732 mmHg 35%
    20:00 +16°C° 0 mm 10 mps 732 mmHg 37%
    21:00 +14°C° 0 mm 10 mps 733 mmHg 39%
    22:00 +13°C° 0 mm 9 mps 733 mmHg 41%
    23:00 +13°C° 0 mm 9 mps 733 mmHg 43%

    18 November, Sunday

    Time Temperature Precipitation Wind Pressure Humidity
    00:00 +12°C° 0 mm 9 mps 733 mmHg 44%
    01:00 +11°C° 0 mm 9 mps 733 mmHg 46%
    02:00 +11°C° 0 mm 9 mps 733 mmHg 47%
    03:00 +11°C° 0 mm 8 mps 733 mmHg 48%
    04:00 +11°C° 0 mm 8 mps 733 mmHg 48%
    05:00 +12°C° 0 mm 9 mps 733 mmHg 45%
    06:00 +13°C° 0 mm 10 mps 733 mmHg 41%
    07:00 +16°C° 0 mm 11 mps 734 mmHg 37%
    08:00 +17°C° 0 mm 11 mps 733 mmHg 33%
    09:00 +19°C° 0 mm 10 mps 733 mmHg 30%
    10:00 +22°C° 0 mm 10 mps 733 mmHg 26%
    11:00 +23°C° 0 mm 10 mps 732 mmHg 25%
    12:00 +24°C° 0 mm 10 mps 732 mmHg 24%
    13:00 +26°C° 0 mm 10 mps 731 mmHg 22%
    14:00 +26°C° 0 mm 11 mps 731 mmHg 23%
    15:00 +26°C° 0 mm 11 mps 731 mmHg 23%
    16:00 +26°C° 0 mm 11 mps 730 mmHg 23%
    17:00 +23°C° 0 mm 11 mps 731 mmHg 26%
    18:00 +22°C° 0 mm 11 mps 731 mmHg 29%
    19:00 +19°C° 0 mm 10 mps 732 mmHg 32%
    20:00 +18°C° 0 mm 10 mps 732 mmHg 34%
    21:00 +18°C° 0 mm 10 mps 732 mmHg 36%
    22:00 +17°C° 0 mm 10 mps 733 mmHg 39%
    23:00 +17°C° 0 mm 9 mps 732 mmHg 40%
    Show more